Regional Weather Roundup
Issued by NWS

Home | Current Version | Previous Version | Text Only | Print | Product List | Glossary Off
Versions: 1 2 3 4 5 6 7 8 9 10 11 12 13 14 15 16 17 18 19 20 21 22 23 24 25 26 27 28 29 30 31 32 33 34 35 36 37 38 39 40 41 42 43 44 45 46 47 48 49 50

092
ASUS43 KOAX 301210
RWRNE

WEATHER ROUNDUP FOR NEBRASKA
NATIONAL WEATHER SERVICE OMAHA NE
700 AM CDT SAT APR 30 2016

NOTES: SATELLITE DATA IS BEING USED TO AUGMENT CLOUD COVER ABOVE
       12000 FEET.
       "FAIR" INDICATES FEW OR NO CLOUDS BELOW 12,000 FEET WITH NO
       SIGNIFICANT WEATHER AND/OR OBSTRUCTIONS TO VISIBILITY.

  * THESE STATIONS DO NOT REPORT WEATHER SUCH AS RAIN...SNOW OR FOG.

NEZ001>004-019>022-054>056-301300-
NEBRASKA PANHANDLE

CITY           SKY/WX    TMP DP  RH WIND       PRES   REMARKS
SCOTTSBLUFF    LGT SNOW  34  31  88 N13       29.92S FOG     WCI  25
6HR MIN TEMP:  33; 6HR MAX TEMP:  34; 6HR PCP:  0.24;

ALLIANCE       LGT SNOW  32  32 100 N16       29.89S VSB 3/4 WCI  21
                                      6HR PCP:  0.01;

CHADRON        LGT RAIN  37  35  92 N16       29.97R FOG     WCI  28
6HR MIN TEMP:  37; 6HR MAX TEMP:  37; 6HR PCP:  0.30;

KIMBALL        LGT SNOW  31  31  99 N10       29.87S WCI  23
SIDNEY         LGT SNOW  32  30  92 N18       29.86S FOG     WCI  20
6HR MIN TEMP:  32; 6HR MAX TEMP:  32; 6HR PCP:  0.17;

$$

NEZ057>060-069>072-079>082-301300-
SOUTHWEST NEBRASKA

CITY           SKY/WX    TMP DP  RH WIND       PRES   REMARKS
NORTH PLATTE   LGT SNOW  33  32  96 NW6       29.80F FOG     WCI  28
6HR MIN TEMP:  33; 6HR MAX TEMP:  33; 6HR PCP:  0.32;

IMPERIAL       CLOUDY    33  32  96 N15       29.81S WCI  23
6HR MIN TEMP:  33; 6HR MAX TEMP:  33; 6HR PCP:  0.06;

LEXINGTON      DRIZZLE   37  35  93 N10       29.77S WCI  29
MCCOOK         MIX PCPN  36  34  92 N14       29.78S WCI  27
6HR MIN TEMP:  35; 6HR MAX TEMP:  38; 6HR PCP:  0.06;

OGALLALA       LGT RAIN  34  32  94 N14       29.83S WCI  24
$$

NEZ005>010-023>029-035>040-094-301300-
NORTH CENTRAL NEBRASKA

CITY           SKY/WX    TMP DP  RH WIND       PRES   REMARKS
VALENTINE      LGT RAIN  40  36  86 NE15      29.92R WCI  32
6HR MIN TEMP:  40; 6HR MAX TEMP:  41; 6HR PCP:  0.32;

AINSWORTH      LGT RAIN  36  35  95 NE13G18   29.89S WCI  27
BROKEN BOW     LGT RAIN  36  35  96 N15       29.76F WCI  27
6HR MIN TEMP:  34; 6HR MAX TEMP:  40; 6HR PCP:  0.93;

O`NEILL        RAIN      41  39  92 NE13G22   29.87S
ORD            RAIN      40  38  93 NE13      29.77F FOG     WCI  32
6HR MIN TEMP:  40; 6HR MAX TEMP:  41; 6HR PCP:  1.22;

THEDFORD       LGT SNOW  34  33  99 NE8       29.85S WCI  27
$$

NEZ041-046>049-061>064-073>077-083>087-301300-
SOUTH CENTRAL NEBRASKA

CITY           SKY/WX    TMP DP  RH WIND       PRES   REMARKS
GRAND ISLAND   CLOUDY    42  41  96 NE15      29.73F
6HR MIN TEMP:  41; 6HR MAX TEMP:  42; 6HR PCP:  0.78;

AURORA         CLOUDY    43  42  99 NE15      29.71F
HASTINGS       CLOUDY    42  40  92 NE15      29.71F
6HR MIN TEMP:  42; 6HR MAX TEMP:  42; 6HR PCP:  0.48;

HEBRON         CLOUDY    45  44  97 NE8       29.68R FOG
HOLDREGE       CLOUDY    40  39  97 N12       29.73F FOG     WCI  33
KEARNEY *      CLOUDY    41  37  87 N12       29.74S
YORK           LGT RAIN  43  43 100 NE13      29.70F
$$

NEZ011>018-030>034-042>045-301300-
NORTHEAST NEBRASKA

CITY           SKY/WX    TMP DP  RH WIND       PRES   REMARKS
NORFOLK        RAIN      42  39  89 NE14      29.78F FOG
6HR MIN TEMP:  42; 6HR MAX TEMP:  43; 6HR PCP:  0.34;

ALBION         RAIN      41  39  93 NE9       29.79S
BLAIR          RAIN      44  43  95 NE17G23   29.71F
COLUMBUS *     CLOUDY    43  36  75 NE13      29.77S
FREMONT        RAIN      43  43  99 NE9G18    29.74S
TEKAMAH        HVY RAIN  44  42  93 NE15      29.76F FOG
6HR MIN TEMP:  44; 6HR MAX TEMP:  46; 6HR PCP:  0.47;

WAYNE          RAIN      43  41  93 NE18G30   29.80F
$$

NEZ050>053-065>068-078-088>093-301300-
SOUTHEAST NEBRASKA

CITY           SKY/WX    TMP DP  RH WIND       PRES   REMARKS
LINCOLN        LGT RAIN  46  44  93 NE12      29.72S FOG
6HR MIN TEMP:  46; 6HR MAX TEMP:  46; 6HR PCP:  0.57;

OMAHA EPPLEY   HVY RAIN  46  43  89 VRB7      29.73F FOG
6HR MIN TEMP:  46; 6HR MAX TEMP:  47; 6HR PCP:  0.64;

BEATRICE       CLOUDY    46  45  97 NE8       29.67F
FALLS CITY     RAIN      50  49  96 E13       29.65R FOG
6HR MIN TEMP:  49; 6HR MAX TEMP:  50; 6HR PCP:  0.65;

NEBRASKA CITY  LGT RAIN  46  46 100 E13       29.67S
PLATTSMOUTH    LGT RAIN  45  44  98 E16G25    29.69F
$$

NEZ044-045-051>053-067-301300-
OMAHA AREA

CITY           SKY/WX    TMP DP  RH WIND       PRES   REMARKS
OMAHA EPPLEY   HVY RAIN  46  43  89 VRB7      29.73F FOG
6HR MIN TEMP:  46; 6HR MAX TEMP:  47; 6HR PCP:  0.64;

BLAIR          RAIN      44  43  95 NE17G23   29.71F
FREMONT        RAIN      43  43  99 NE9G18    29.74S
MILLARD        MIX PCPN  46  43  92 E7        29.71S
OFFUTT AFB     RAIN      45  45 100 NE17      29.70F FOG
PLATTSMOUTH    LGT RAIN  45  44  98 E16G25    29.69F
WAHOO          LGT RAIN  45  43  93 NE12      29.73S
$$




USA.gov is the U.S. government's official web portal to all federal, state and local government web resources and services.